sat.trackr.live / text

‹ back to catalog

MERIDIAN 10

NORAD 52145 · 2022-030A

PAYLOAD ACTIVE UNKNOWN

§ Identity

Operator
Country
CIS
Launch date
2022-03-22
Launch site
PLMSC
Launch vehicle
Mass (kg)
RCS (m²)

External: N2YO · Heavens-Above · Gunter

§ Orbital elements

Epoch: 2026-05-24T01:03:38.854080Z

Period
717.79 min
Inclination
62.6766°
Eccentricity
0.6777536
Mean motion
2.00615865 rev/d
Perigee alt
2,179.4 km
Apogee alt
38,175.8 km
Semi-major
26,555.7 km
B*
0.0000e+0
RAAN
143.3860°
Arg perigee
272.8746°
Mean anomaly
17.6848°
Rev number
3,054

§ Raw data

MERIDIAN 101 52145U 22030A   26144.04419970  .00000213  00000+0  00000+0 0  99992 52145  62.6766 143.3860 6777536 272.8746  17.6848  2.00615865 30543

JSON: /api/v1/satellites/52145 · /tle

For live sub-satellite position, see the globe view (requires WebGL).

§ Visibility from observer

Set your observer location to see the next 7 days of passes ≥ 10°. The values pass through the URL so the page stays shareable.

No JS? Fill the form by hand. The geolocation button needs JavaScript.

§ Radio — SatNOGS DB

ModeDescriptionDownlinkUplink
FM 486.250 486.250 MHz
FM Mode L - SECAM TV 992.450 MHz
FM Mode U - EU slot 483.750 MHz
FM Mode U - NA slot 484.250 MHz
FM Mode V 279.550 MHz

5 transmitters · refreshed weekly from db.satnogs.org